DW8791 Weather Reports


Display with metric or nautical units.
time (UTC)temp
F
wind
direction
speed
MPH
gust
MPH
rain 1hr
in
rain 24hr
in
rain mn
in
humidity
%
barometer
mb
20260509034607 48 356 2.0 3.0 0.00 0.00 0.00 92 1018.9
20260509033107 48 11 1.0 3.0 0.00 0.00 0.00 92 1018.8
20260509031607 48 0 2.0 3.0 0.00 0.00 0.00 90 1018.7
20260509031108 48 1 2.0 3.0 0.00 0.00 0.00 90 1018.7
20260509030608 49 16 2.0 3.0 0.00 0.00 0.00 90 1018.7
20260509030107 49 352 1.0 3.0 0.00 0.00 0.00 89 1018.7
20260509024607 50 22 1.0 2.0 0.00 0.00 0.00 89 1018.7
20260509023607 51 71 0.0 2.0 0.00 0.00 0.00 90 1018.7
20260509023107 51 78 1.0 2.0 0.00 0.00 0.00 91 1018.7
20260509021607 51 107 1.0 3.0 0.00 0.00 0.00 90 1018.6
20260509021108 51 135 1.0 3.0 0.00 0.00 0.00 90 1018.6
20260509020607 52 126 2.0 3.0 0.00 0.00 0.00 90 1018.6
20260509020108 52 146 1.0 3.0 0.00 0.00 0.00 90 1018.6
20260509014608 52 140 1.0 3.0 0.00 0.00 0.00 90 1018.6
20260509014107 52 120 1.0 7.0 0.00 0.00 0.00 90 1018.6
20260509013608 52 140 2.0 7.0 0.00 0.00 0.00 90 1018.6
20260509013107 52 135 3.0 5.0 0.00 0.00 0.00 90 1018.7
20260509011607 52 140 2.0 6.0 0.00 0.00 0.00 90 1018.7
20260509011108 52 119 3.0 6.0 0.00 0.00 0.00 90 1018.7
20260509010607 52 139 3.0 6.0 0.00 0.00 0.00 90 1018.7
20260509010108 52 142 1.0 3.0 0.00 0.00 0.00 90 1018.7
20260509004607 52 144 3.0 7.0 0.00 0.00 0.00 91 1018.7
20260509004108 53 132 2.0 6.0 0.00 0.00 0.00 91 1018.8
20260509003608 53 128 2.0 3.0 0.00 0.00 0.00 91 1018.8
20260509001106 53 145 1.0 6.0 0.00 0.00 0.00 91 1018.6
20260509000107 53 109 2.0 6.0 0.00 0.00 0.00 91 1018.6
20260508234607 53 104 2.0 6.0 0.00 0.00 0.00 91 1018.7
20260508234108 53 114 2.0 3.0 0.00 0.00 0.00 91 1018.7
20260508231107 53 131 2.0 6.0 0.00 0.00 0.00 90 1018.8
20260508230607 53 125 3.0 7.0 0.00 0.00 0.00 90 1018.8
20260508230108 53 138 2.0 7.0 0.00 0.00 0.00 90 1018.8
20260508224608 53 100 3.0 8.0 0.00 0.00 0.00 90 1018.7
20260508224107 53 73 2.0 9.0 0.00 0.00 0.00 90 1018.7
20260508223607 53 109 2.0 9.0 0.00 0.00 0.00 90 1018.8
20260508223108 53 123 3.0 7.0 0.00 0.00 0.00 90 1018.7
20260508221607 53 114 4.0 9.0 0.00 0.00 0.00 90 1018.5
20260508220607 53 114 5.0 10.0 0.00 0.00 0.00 90 1018.5
20260508220108 53 117 4.0 10.0 0.00 0.00 0.00 90 1018.5
20260508213607 53 133 3.0 9.0 0.00 0.00 0.00 88 1018.5
20260508213107 53 119 5.0 9.0 0.00 0.00 0.00 88 1018.6
20260508211607 53 118 3.0 6.0 0.00 0.00 0.00 88 1018.5
20260508211106 53 124 2.0 8.0 0.00 0.00 0.00 87 1018.5
20260508210108 53 121 3.0 8.0 0.00 0.00 0.00 87 1018.5
20260508204608 54 134 5.0 9.0 0.00 0.00 0.00 86 1018.4
20260508204108 54 113 5.0 10.0 0.00 0.00 0.00 86 1018.4
20260508203607 54 106 6.0 10.0 0.00 0.00 0.00 86 1018.3
20260508203108 54 112 4.0 8.0 0.00 0.00 0.00 85 1018.3
20260508201107 54 88 3.0 8.0 0.00 0.00 0.00 83 1018.2
20260508200607 55 101 4.0 8.0 0.00 0.00 0.00 83 1018.2
20260508200107 55 125 4.0 9.0 0.00 0.00 0.00 82 1018.2
20260508194607 55 115 6.0 12.0 0.00 0.00 0.00 80 1017.9
20260508194107 55 119 6.0 13.0 0.00 0.00 0.00 79 1017.8
20260508193608 55 126 5.0 13.0 0.00 0.00 0.00 78 1017.7
20260508193107 56 113 5.0 12.0 0.00 0.00 0.00 77 1017.7
20260508191608 56 115 8.0 13.0 0.00 0.00 0.00 74 1017.5
20260508191107 56 117 6.0 12.0 0.00 0.00 0.00 73 1017.4
20260508190608 56 119 6.0 13.0 0.00 0.00 0.00 73 1017.4
20260508190107 56 115 5.0 14.0 0.00 0.00 0.00 71 1017.4
20260508184608 56 113 5.0 15.0 0.00 0.00 0.00 69 1017.2
20260508184107 56 133 5.0 12.0 0.00 0.00 0.00 68 1017.2
20260508183607 57 129 5.0 13.0 0.00 0.00 0.00 67 1017.2
20260508183107 57 124 6.0 13.0 0.00 0.00 0.00 66 1017.2
20260508181608 57 112 5.0 12.0 0.00 0.00 0.00 67 1017.2
20260508181108 57 123 7.0 13.0 0.00 0.00 0.00 67 1017.1
20260508180607 58 135 7.0 13.0 0.00 0.00 0.00 66 1017.2
20260508180108 58 136 6.0 12.0 0.00 0.00 0.00 66 1017.1
20260508174607 58 134 7.0 13.0 0.00 0.00 0.00 66 1017.1
20260508174107 58 117 6.0 13.0 0.00 0.00 0.00 67 1017.1
20260508173107 58 128 7.0 15.0 0.00 0.00 0.00 66 1017.0
20260508171607 58 121 6.0 14.0 0.00 0.00 0.00 66 1016.9
20260508170607 57 135 6.0 14.0 0.00 0.00 0.00 65 1016.8
20260508170108 57 128 7.0 14.0 0.00 0.00 0.00 65 1016.8
20260508164107 57 120 4.0 14.0 0.00 0.00 0.00 65 1016.8
20260508163607 57 143 5.0 12.0 0.00 0.00 0.00 66 1016.7
20260508163107 58 126 8.0 12.0 0.00 0.00 0.00 66 1016.7
20260508161607 58 137 5.0 12.0 0.00 0.00 0.00 66 1016.7
20260508161107 58 135 5.0 12.0 0.00 0.00 0.00 66 1016.7
20260508160607 58 130 5.0 12.0 0.00 0.00 0.00 64 1016.6
20260508160107 58 134 7.0 12.0 0.00 0.00 0.00 63 1016.7
20260508154607 59 143 3.0 12.0 0.00 0.00 0.00 60 1016.7
20260508154107 59 126 3.0 12.0 0.00 0.00 0.00 59 1016.7
20260508153607 59 139 5.0 14.0 0.00 0.00 0.00 58 1016.7
20260508151607 59 129 6.0 13.0 0.00 0.00 0.00 58 1016.7
20260508151108 59 131 7.0 12.0 0.00 0.00 0.00 58 1016.7
20260508150607 60 147 5.0 12.0 0.00 0.00 0.00 59 1016.6
20260508144107 60 111 5.0 14.0 0.00 0.00 0.00 62 1016.5
20260508143607 60 130 5.0 14.0 0.00 0.00 0.00 63 1016.6
20260508141607 61 114 7.0 14.0 0.00 0.00 0.00 62 1016.5
20260508141108 61 129 7.0 14.0 0.00 0.00 0.00 62 1016.5
20260508140607 62 143 7.0 13.0 0.00 0.00 0.00 62 1016.5
20260508140107 62 113 7.0 13.0 0.00 0.00 0.00 61 1016.5
20260508134607 62 116 5.0 12.0 0.00 0.00 0.00 66 1016.5
20260508133608 61 125 8.0 13.0 0.00 0.00 0.00 63 1016.6
20260508133107 61 139 7.0 14.0 0.00 0.00 0.00 63 1016.6
20260508131108 62 117 8.0 14.0 0.00 0.00 0.00 65 1016.6
20260508130108 62 124 7.0 14.0 0.00 0.00 0.00 64 1016.6
20260508124607 62 109 6.0 13.0 0.00 0.00 0.00 65 1016.6
20260508124107 62 137 3.0 12.0 0.00 0.00 0.00 65 1016.7
20260508123607 62 132 6.0 12.0 0.00 0.00 0.00 65 1016.7
20260508121607 61 125 6.0 14.0 0.00 0.00 0.00 65 1016.7
20260508121107 62 120 8.0 14.0 0.00 0.00 0.00 64 1016.7
20260508120607 63 124 6.0 10.0 0.00 0.00 0.00 63 1016.7
20260508120107 63 117 5.0 12.0 0.00 0.00 0.00 64 1016.7
20260508114608 63 149 3.0 10.0 0.00 0.00 0.00 62 1016.7
20260508114107 62 79 5.0 10.0 0.00 0.00 0.00 64 1016.7
20260508113607 62 67 3.0 8.0 0.00 0.00 0.00 65 1016.8
20260508113107 62 106 5.0 9.0 0.00 0.00 0.00 64 1016.8
20260508111607 61 112 3.0 9.0 0.00 0.00 0.00 65 1016.7
20260508111107 61 159 2.0 6.0 0.00 0.00 0.00 66 1016.8
20260508110607 61 169 3.0 9.0 0.00 0.00 0.00 66 1016.8
20260508110107 61 199 2.0 9.0 0.00 0.00 0.00 66 1016.7
20260508104607 60 125 5.0 9.0 0.00 0.00 0.00 69 1016.8
20260508104107 60 181 2.0 6.0 0.00 0.00 0.00 69 1016.8
20260508103607 60 215 3.0 7.0 0.00 0.00 0.00 72 1016.9
20260508101607 58 154 2.0 8.0 0.00 0.00 0.00 77 1017.0
20260508101107 58 166 4.0 8.0 0.00 0.00 0.00 75 1017.0
20260508100607 57 158 3.0 8.0 0.00 0.00 0.00 78 1017.0
20260508100108 57 138 5.0 8.0 0.00 0.00 0.00 78 1017.0
20260508094608 55 183 2.0 8.0 0.00 0.00 0.00 82 1016.9
20260508094108 55 222 2.0 8.0 0.00 0.00 0.00 82 1017.0
20260508093107 55 174 1.0 7.0 0.00 0.00 0.00 83 1016.9
20260508091607 54 160 1.0 3.0 0.00 0.00 0.00 85 1017.0
20260508091107 54 168 2.0 6.0 0.00 0.00 0.00 85 1017.0
20260508090107 53 172 3.0 6.0 0.00 0.00 0.00 86 1017.0
20260508084608 52 187 1.0 5.0 0.00 0.00 0.00 88 1017.0
20260508084108 52 159 2.0 5.0 0.00 0.00 0.00 87 1017.0
20260508083607 52 150 2.0 5.0 0.00 0.00 0.00 88 1017.0
20260508083107 52 171 2.0 5.0 0.00 0.00 0.00 88 1016.9
20260508081607 51 160 2.0 7.0 0.00 0.00 0.00 88 1016.8
20260508081107 51 151 4.0 8.0 0.00 0.00 0.00 89 1016.8
20260508080108 51 166 3.0 8.0 0.00 0.00 0.00 90 1016.7
20260508073607 51 143 1.0 3.0 0.00 0.00 0.00 89 1016.7
20260508073107 50 165 1.0 3.0 0.00 0.00 0.00 89 1016.6
20260508071607 50 156 2.0 5.0 0.00 0.00 0.00 89 1016.6
20260508071106 50 169 1.0 5.0 0.00 0.00 0.00 89 1016.6
20260508070608 50 210 1.0 3.0 0.00 0.00 0.00 89 1016.5
20260508064607 50 174 1.0 3.0 0.00 0.00 0.00 88 1016.3
20260508063607 50 142 1.0 3.0 0.00 0.00 0.00 87 1016.2
20260508063107 50 130 1.0 3.0 0.00 0.00 0.00 87 1016.2
20260508061607 50 162 2.0 5.0 0.00 0.00 0.00 88 1016.0
20260508061107 50 154 2.0 5.0 0.00 0.00 0.00 87 1016.0
20260508060607 50 140 1.0 3.0 0.00 0.00 0.00 88 1016.0
20260508054106 50 166 1.0 3.0 0.00 0.00 0.00 88 1015.8
20260508053607 50 122 2.0 3.0 0.00 0.00 0.00 88 1015.8
20260508051607 49 159 2.0 7.0 0.00 0.00 0.00 88 1015.6
20260508051107 49 160 1.0 3.0 0.00 0.00 0.00 88 1015.6
20260508050607 49 162 1.0 3.0 0.00 0.00 0.00 87 1015.7
20260508044607 50 140 2.0 5.0 0.00 0.00 0.00 87 1015.5
20260508044107 50 123 2.0 5.0 0.00 0.00 0.00 87 1015.5
20260508043607 50 135 3.0 5.0 0.00 0.00 0.00 87 1015.5
20260508043108 50 132 2.0 3.0 0.00 0.00 0.00 86 1015.5
20260508041608 50 129 1.0 3.0 0.00 0.00 0.00 86 1015.6
20260508041107 50 129 0.0 3.0 0.00 0.00 0.00 86 1015.5
20260508040607 50 121 1.0 3.0 0.00 0.00 0.00 86 1015.5
20260508040108 50 132 1.0 3.0 0.00 0.00 0.00 86 1015.4